This is the latest recevied weather packets stored in our database for station/object AH6GR. If no packets are shown the sender has not sent any weather packets the latest 10 day(s).
| Time | Temp. | Humidity | Pressure | Rain* | Wind** | Luminosity | Snow |
|---|---|---|---|---|---|---|---|
| 1777844723 | 23.33° C | 82% | 1016.9 hPa | 0 mm | - | - | - |
| 1777844428 | 23.89° C | 82% | 1017.9 hPa | 0 mm | - | - | - |
| 1777843844 | 24.44° C | 78% | 1017 hPa | 0 mm | - | - | - |
| 1777843828 | 24.44° C | 78% | 1018 hPa | 0 mm | - | - | - |
| 1777843228 | 23.89° C | 81% | 1018.1 hPa | 0 mm | - | - | - |
| 1777842928 | 23.89° C | 79% | 1017.1 hPa | 0 mm | - | - | - |
| 1777842629 | 23.89° C | 78% | 1018.2 hPa | 0 mm | - | - | - |
| 1777842071 | 23.89° C | 79% | 1017.3 hPa | 0 mm | - | - | - |
| 1777842029 | 23.89° C | 79% | 1018.4 hPa | 0 mm | - | - | - |
| 1777841428 | 23.89° C | 77% | 1018.3 hPa | 0 mm | - | - | - |
| 1777841149 | 23.33° C | 80% | 1017.3 hPa | 0 mm | - | - | - |
| 1777840828 | 23.89° C | 81% | 1018.3 hPa | 0 mm | - | - | - |
| 1777840229 | 23.89° C | 82% | 1018.3 hPa | 0 mm | - | - | - |
| 1777840222 | 23.33° C | 82% | 1017.4 hPa | 0 mm | - | - | - |
| 1777839629 | 23.89° C | 81% | 1018.4 hPa | 0 mm | - | - | - |
| 1777839364 | 23.89° C | 80% | 1017.4 hPa | 0 mm | - | - | - |
| 1777839028 | 23.89° C | 79% | 1018.3 hPa | 0 mm | - | - | - |
| 1777838453 | 23.89° C | 78% | 1017.3 hPa | 0 mm | - | - | - |
| 1777838428 | 23.89° C | 77% | 1018.2 hPa | 0 mm | - | - | - |
| 1777837829 | 23.89° C | 76% | 1018.2 hPa | 0 mm | - | - | - |
| 1777837511 | 23.33° C | 77% | 1017.3 hPa | 0 mm | - | - | - |
| 1777837229 | 23.89° C | 79% | 1018.2 hPa | 0 mm | - | - | - |
| 1777836656 | 23.33° C | 80% | 1017.2 hPa | 0 mm | - | - | - |
| 1777836628 | 23.89° C | 80% | 1018.3 hPa | 0 mm | - | - | - |
| 1777836029 | 23.89° C | 78% | 1018.2 hPa | 0 mm | - | - | - |
* Rain latest hour (hover to see other rain measurements)
** Current wind speed in m/s (hover to see current wind gust speed)